Home > Time Zones > World Clock > Weather > China > Wuhan > Past weeks

Flag for China Weather past 2 weeks in Wuhan, China

Now
66 °F

Passing clouds.


Feels Like: 66 °F
Forecast: 65 / 82 °F
Wind: 6 mph from Northeast

Location: Wuhan Airport


UV Index: 5 (Moderate)

Visibility: 5 mi


Pressure: 29.89 "Hg

Humidity: 88%

Dew point: 63 °F

Location of WuhanLocation

Historic Weather in Wuhan

°F

Wuhan temperature yesterday

Maximum temperature yesterday: 63 °F (at 12:00 AM)
Minimum temperature yesterday: 59 °F (at 7:00 PM)
Average temperature yesterday: 60 °F

Past Weeks' High & Low Weather Summary

 TemperatureHumidityPressure
High82 °F (Apr 9, 3:00 PM)100% (Apr 8, 6:00 AM)30.18 "Hg (Apr 8, 6:00 AM)
Low55 °F (Apr 4, 5:00 AM)34% (Apr 3, 4:00 PM)29.74 "Hg (Apr 11, 4:00 PM)
Average64 °F77%29.98 "Hg
* Reported Apr 2 8:00 PM — Apr 17 8:00 PM, Wuhan, Weather by CustomWeather, © 2014

Note: Actual official high and low records may vary slightly from our data, if they occured in-between our weather recording intervals... More about our weather records

Advertising

Historic Weather Conditions — Data for Previous 24 hours

 ConditionsComfort  
Time TempWeatherWind HumidityBarometerVisibility
8:00 PM
Apr 17
68 °FPassing clouds.6 mph83%29.86 "HgN/A
7:00 PM68 °FPassing clouds.3 mph83%29.83 "HgN/A
6:00 PM70 °FPassing clouds.1 mph78%29.83 "HgN/A
5:00 PM70 °FPassing clouds.1 mph78%29.80 "HgN/A
4:00 PM72 °FScattered clouds.3 mph73%29.80 "HgN/A
3:00 PM70 °FScattered clouds.6 mph78%29.83 "HgN/A
2:00 PM70 °FPartly sunny.3 mph78%29.83 "HgN/A
1:00 PM68 °FPartly sunny.1 mph78%29.86 "HgN/A
12:00 PM66 °FScattered clouds.1 mph83%29.89 "HgN/A
11:00 AM66 °FScattered clouds.1 mph83%29.89 "HgN/A
10:00 AM64 °FScattered clouds.3 mph88%29.89 "HgN/A
9:00 AM63 °FScattered clouds.1 mph88%29.86 "Hg4 mi
8:00 AM61 °FFog.1 mph94%29.86 "Hg3 mi
7:00 AM59 °FFog.1 mph100%29.86 "Hg2 mi
6:00 AM59 °FFog.1 mph100%29.83 "Hg2 mi
5:00 AM59 °FThunderstorms. Fog.6 mph100%29.83 "Hg3 mi
4:00 AM59 °FThunderstorms. Fog.1 mph100%29.80 "Hg2 mi
3:00 AM59 °FThunderstorms. Fog.1 mph100%29.80 "Hg3 mi
2:00 AM59 °FThunderstorms. Fog.3 mph100%29.80 "Hg2 mi
1:00 AM59 °FThunderstorms. Fog.6 mph100%29.83 "Hg1 mi
12:00 AM59 °FThunderstorms. Fog.3 mph100%29.83 "Hg1 mi
11:00 PM
Apr 16
59 °FThunderstorms. Fog.3 mph100%29.83 "Hg1 mi
10:00 PM59 °FLight rain. Fog.3 mph100%29.83 "Hg1 mi
9:00 PM59 °FLight rain. Fog.3 mph100%29.83 "Hg1 mi
Weather by CustomWeather, © 2014

See weather overview